FW8891 Weather Reports


Display with metric or nautical units.
time (UTC)temp
F
wind
direction
speed
MPH
gust
MPH
rain 1hr
in
rain 24hr
in
rain mn
in
humidity
%
barometer
mb
20260509034558 91 241 4.0 7.0 0.00 0.00 0.00 14 1008.6
20260509034101 91 278 4.0 8.0 0.00 0.00 0.00 14 1008.6
20260509033559 91 264 4.0 8.0 0.00 0.00 0.00 14 1008.6
20260509033059 92 249 4.0 8.0 0.00 0.00 0.00 14 1008.5
20260509032559 92 231 4.0 8.0 0.00 0.00 0.00 14 1008.5
20260509032100 92 227 4.0 7.0 0.00 0.00 0.00 14 1008.4
20260509031601 92 251 3.0 8.0 0.00 0.00 0.00 14 1008.3
20260509031058 93 278 5.0 9.0 0.00 0.00 0.00 14 1008.3
20260509030558 93 264 4.0 9.0 0.00 0.00 0.00 14 1008.2
20260509030101 93 200 4.0 7.0 0.00 0.00 0.00 14 1008.2
20260509025601 93 249 4.0 7.0 0.00 0.00 0.00 14 1008.1
20260509025058 94 265 3.0 9.0 0.00 0.00 0.00 14 1008.1
20260509024558 94 264 4.0 10.0 0.00 0.00 0.00 14 1008.1
20260509024058 95 276 6.0 10.0 0.00 0.00 0.00 13 1008.0
20260509023600 95 205 5.0 10.0 0.00 0.00 0.00 13 1007.9
20260509023101 95 219 5.0 11.0 0.00 0.00 0.00 13 1007.8
20260509022558 95 227 6.0 11.0 0.00 0.00 0.00 13 1007.8
20260509022058 96 240 5.0 11.0 0.00 0.00 0.00 13 1007.7
20260509021601 96 231 4.0 11.0 0.00 0.00 0.00 13 1007.7
20260509021059 97 312 7.0 11.0 0.00 0.00 0.00 13 1007.6
20260509020557 97 271 6.0 11.0 0.00 0.00 0.00 13 1007.6
20260509020058 98 249 6.0 13.0 0.00 0.00 0.00 13 1007.5
20260509015601 98 196 7.0 13.0 0.00 0.00 0.00 13 1007.4
20260509015101 98 232 6.0 11.0 0.00 0.00 0.00 13 1007.4
20260509014559 99 276 5.0 9.0 0.00 0.00 0.00 13 1007.4
20260509014057 99 268 5.0 9.0 0.00 0.00 0.00 13 1007.3
20260509013558 99 262 4.0 11.0 0.00 0.00 0.00 13 1007.4
20260509013058 99 302 5.0 11.0 0.00 0.00 0.00 13 1007.4
20260509012558 100 271 4.0 14.0 0.00 0.00 0.00 13 1007.4
20260509012101 100 307 6.0 14.0 0.00 0.00 0.00 13 1007.4
20260509011601 100 250 5.0 11.0 0.00 0.00 0.00 13 1007.4
20260509011058 100 280 7.0 11.0 0.00 0.00 0.00 13 1007.4
20260509010557 100 345 4.0 7.0 0.00 0.00 0.00 13 1007.4
20260509010107 101 250 4.0 11.0 0.00 0.00 0.00 12 1007.4
20260509005558 100 240 7.0 13.0 0.00 0.00 0.00 13 1007.5
20260509005101 101 271 6.0 13.0 0.00 0.00 0.00 13 1007.5
20260509004623 101 218 6.0 10.0 0.00 0.00 0.00 13 1007.5
20260509004057 101 228 5.0 12.0 0.00 0.00 0.00 13 1007.5
20260509003604 101 269 6.0 12.0 0.00 0.00 0.00 13 1007.5
20260509003110 101 259 6.0 14.0 0.00 0.00 0.00 12 1007.6
20260509002558 101 83 5.0 14.0 0.00 0.00 0.00 13 1007.6
20260509002058 101 247 9.0 14.0 0.00 0.00 0.00 13 1007.6
20260509001603 102 226 7.0 13.0 0.00 0.00 0.00 13 1007.5
20260509001059 101 262 3.0 12.0 0.00 0.00 0.00 13 1007.6
20260509000559 101 199 6.0 12.0 0.00 0.00 0.00 13 1007.7
20260509000059 102 207 4.0 10.0 0.00 0.00 0.00 13 1007.8
20260508235558 102 165 5.0 9.0 0.00 0.00 0.00 13 1007.7
20260508235101 102 242 4.0 12.0 0.00 0.00 0.00 13 1007.8
20260508234605 101 221 6.0 12.0 0.00 0.00 0.00 13 1007.7
20260508234100 102 279 6.0 15.0 0.00 0.00 0.00 13 1007.9
20260508233559 102 198 9.0 15.0 0.00 0.00 0.00 13 1008.0
20260508233057 102 262 5.0 12.0 0.00 0.00 0.00 13 1008.0
20260508232558 101 146 5.0 12.0 0.00 0.00 0.00 14 1008.0
20260508232058 102 226 6.0 11.0 0.00 0.00 0.00 13 1008.1
20260508231558 102 250 4.0 11.0 0.00 0.00 0.00 14 1008.2
20260508231100 101 227 8.0 15.0 0.00 0.00 0.00 14 1008.2
20260508230600 102 255 6.0 15.0 0.00 0.00 0.00 14 1008.2
20260508230059 102 182 6.0 11.0 0.00 0.00 0.00 14 1008.3
20260508225558 102 252 5.0 9.0 0.00 0.00 0.00 14 1008.4
20260508225057 101 297 5.0 12.0 0.00 0.00 0.00 14 1008.5
20260508224600 101 200 4.0 12.0 0.00 0.00 0.00 14 1008.5
20260508224100 101 221 7.0 12.0 0.00 0.00 0.00 15 1008.6
20260508223558 102 248 2.0 10.0 0.00 0.00 0.00 15 1008.6
20260508223057 101 192 4.0 10.0 0.00 0.00 0.00 15 1008.8
20260508222557 101 271 4.0 13.0 0.00 0.00 0.00 15 1008.9
20260508222057 100 236 6.0 16.0 0.00 0.00 0.00 16 1009.0
20260508221558 100 238 7.0 16.0 0.00 0.00 0.00 15 1009.1
20260508221058 100 253 6.0 11.0 0.00 0.00 0.00 16 1009.1
20260508220559 100 236 6.0 11.0 0.00 0.00 0.00 15 1009.3
20260508220059 100 225 4.0 12.0 0.00 0.00 0.00 16 1009.4
20260508215558 100 248 7.0 14.0 0.00 0.00 0.00 16 1009.5
20260508215058 100 233 6.0 14.0 0.00 0.00 0.00 16 1009.5
20260508214607 100 267 5.0 11.0 0.00 0.00 0.00 15 1009.8
20260508214059 99 263 4.0 11.0 0.00 0.00 0.00 16 1009.9
20260508213558 99 269 7.0 11.0 0.00 0.00 0.00 15 1010.0
20260508213101 99 259 4.0 11.0 0.00 0.00 0.00 16 1010.0
20260508212558 99 256 4.0 11.0 0.00 0.00 0.00 16 1010.2
20260508212057 99 163 3.0 13.0 0.00 0.00 0.00 17 1010.3
20260508211558 98 212 7.0 13.0 0.00 0.00 0.00 17 1010.4
20260508211058 98 243 5.0 9.0 0.00 0.00 0.00 17 1010.6
20260508210602 98 297 5.0 9.0 0.00 0.00 0.00 17 1010.7
20260508210059 98 137 5.0 9.0 0.00 0.00 0.00 19 1010.8
20260508205558 97 155 4.0 15.0 0.00 0.00 0.00 19 1010.8
20260508205058 97 136 6.0 15.0 0.00 0.00 0.00 18 1010.8
20260508204602 98 222 5.0 9.0 0.00 0.00 0.00 18 1010.9
20260508204058 98 177 4.0 10.0 0.00 0.00 0.00 18 1011.0
20260508203601 98 203 6.0 10.0 0.00 0.00 0.00 19 1011.0
20260508202558 97 181 4.0 11.0 0.00 0.00 0.00 18 1011.2
20260508202101 97 83 4.0 8.0 0.00 0.00 0.00 18 1011.2
20260508201600 96 75 2.0 7.0 0.00 0.00 0.00 18 1011.2
20260508201059 97 127 3.0 7.0 0.00 0.00 0.00 17 1011.4
20260508200559 96 242 2.0 6.0 0.00 0.00 0.00 18 1011.5
20260508200101 96 155 2.0 9.0 0.00 0.00 0.00 18 1011.6
20260508195558 96 263 3.0 11.0 0.00 0.00 0.00 17 1011.7
20260508195103 96 170 6.0 11.0 0.00 0.00 0.00 18 1011.7
20260508194600 96 205 4.0 11.0 0.00 0.00 0.00 18 1011.7
20260508194059 95 176 3.0 8.0 0.00 0.00 0.00 19 1011.8
20260508193559 94 219 1.0 8.0 0.00 0.00 0.00 19 1011.9
20260508193119 94 178 4.0 8.0 0.00 0.00 0.00 18 1012.0
20260508192600 94 228 2.0 6.0 0.00 0.00 0.00 19 1012.0
20260508192103 93 218 2.0 7.0 0.00 0.00 0.00 19 1012.1
20260508191603 94 108 3.0 7.0 0.00 0.00 0.00 18 1012.2
20260508191101 93 251 3.0 7.0 0.00 0.00 0.00 18 1012.3
20260508190600 93 150 3.0 9.0 0.00 0.00 0.00 18 1012.3
20260508190113 92 213 5.0 9.0 0.00 0.00 0.00 18 1012.4
20260508185603 92 210 4.0 8.0 0.00 0.00 0.00 20 1012.4
20260508185101 92 95 2.0 6.0 0.00 0.00 0.00 20 1012.5
20260508184604 91 105 2.0 6.0 0.00 0.00 0.00 20 1012.5
20260508184100 91 141 3.0 6.0 0.00 0.00 0.00 18 1012.6
20260508183600 91 191 3.0 5.0 0.00 0.00 0.00 20 1012.7
20260508183115 90 0 2.0 6.0 0.00 0.00 0.00 20 1012.7
20260508182601 90 113 2.0 6.0 0.00 0.00 0.00 20 1012.9
20260508182100 91 110 2.0 6.0 0.00 0.00 0.00 19 1012.9
20260508181600 90 165 3.0 6.0 0.00 0.00 0.00 20 1013.0
20260508181104 90 170 2.0 6.0 0.00 0.00 0.00 21 1013.0
20260508180601 89 106 1.0 6.0 0.00 0.00 0.00 22 1013.0
20260508180110 89 106 4.0 7.0 0.00 0.00 0.00 23 1013.2
20260508175558 89 95 3.0 7.0 0.00 0.00 0.00 22 1013.3
20260508175058 89 117 2.0 7.0 0.00 0.00 0.00 23 1013.3
20260508174614 88 127 1.0 5.0 0.00 0.00 0.00 22 1013.4
20260508174105 87 193 2.0 5.0 0.00 0.00 0.00 24 1013.4
20260508173558 86 226 2.0 6.0 0.00 0.00 0.00 25 1013.5
20260508173101 86 126 3.0 6.0 0.00 0.00 0.00 24 1013.4
20260508172558 87 153 2.0 4.0 0.00 0.00 0.00 24 1013.4
20260508172058 86 162 2.0 6.0 0.00 0.00 0.00 24 1013.4
20260508171601 85 118 3.0 8.0 0.00 0.00 0.00 25 1013.5
20260508171100 85 150 4.0 8.0 0.00 0.00 0.00 26 1013.6
20260508170557 85 126 2.0 7.0 0.00 0.00 0.00 25 1013.5
20260508170107 85 115 2.0 7.0 0.00 0.00 0.00 25 1013.6
20260508165558 85 105 4.0 7.0 0.00 0.00 0.00 25 1013.6
20260508165058 85 107 2.0 4.0 0.00 0.00 0.00 24 1013.6
20260508164600 85 149 1.0 5.0 0.00 0.00 0.00 26 1013.6
20260508164058 84 152 1.0 6.0 0.00 0.00 0.00 25 1013.6
20260508163601 84 171 2.0 6.0 0.00 0.00 0.00 25 1013.7
20260508163058 83 99 2.0 6.0 0.00 0.00 0.00 26 1013.6
20260508162558 83 109 2.0 6.0 0.00 0.00 0.00 26 1013.7
20260508162058 83 105 3.0 6.0 0.00 0.00 0.00 25 1013.7
20260508161606 83 108 2.0 5.0 0.00 0.00 0.00 26 1013.7
20260508161058 82 236 2.0 5.0 0.00 0.00 0.00 25 1013.7
20260508160559 82 92 2.0 5.0 0.00 0.00 0.00 26 1013.8
20260508160056 82 142 2.0 5.0 0.00 0.00 0.00 25 1013.7
20260508155558 83 125 2.0 4.0 0.00 0.00 0.00 24 1013.7
20260508155057 83 84 0.0 3.0 0.00 0.00 0.00 25 1013.8
20260508154558 83 75 1.0 3.0 0.00 0.00 0.00 25 1013.7
20260508154058 82 132 0.0 4.0 0.00 0.00 0.00 26 1013.8
20260508153558 82 123 0.0 4.0 0.00 0.00 0.00 26 1013.8
20260508153100 82 122 0.0 3.0 0.00 0.00 0.00 26 1013.8
20260508152557 80 155 0.0 4.0 0.00 0.00 0.00 27 1013.9
20260508152058 80 129 2.0 4.0 0.00 0.00 0.00 27 1013.9
20260508151559 80 0 1.0 4.0 0.00 0.00 0.00 28 1013.9
20260508151058 80 125 2.0 4.0 0.00 0.00 0.00 27 1013.9
20260508150557 79 105 0.0 4.0 0.00 0.00 0.00 27 1013.9
20260508150059 79 77 1.0 3.0 0.00 0.00 0.00 27 1013.8
20260508145558 78 107 1.0 3.0 0.00 0.00 0.00 27 1013.9
20260508145058 78 84 1.0 5.0 0.00 0.00 0.00 28 1013.9
20260508144602 77 72 2.0 5.0 0.00 0.00 0.00 28 1013.8
20260508144101 77 51 3.0 5.0 0.00 0.00 0.00 28 1013.7
20260508143559 77 51 2.0 5.0 0.00 0.00 0.00 28 1013.7
20260508143100 76 60 3.0 5.0 0.00 0.00 0.00 29 1013.7
20260508142559 76 72 2.0 6.0 0.00 0.00 0.00 29 1013.6
20260508142058 75 58 3.0 6.0 0.00 0.00 0.00 29 1013.7
20260508141611 76 69 2.0 4.0 0.00 0.00 0.00 29 1013.7
20260508141059 75 66 1.0 3.0 0.00 0.00 0.00 29 1013.5
20260508140558 75 348 0.0 4.0 0.00 0.00 0.00 29 1013.6
20260508140103 74 71 2.0 4.0 0.00 0.00 0.00 29 1013.5
20260508135558 73 67 2.0 5.0 0.00 0.00 0.00 29 1013.5
20260508135057 72 67 2.0 5.0 0.00 0.00 0.00 29 1013.4
20260508134601 72 67 2.0 4.0 0.00 0.00 0.00 29 1013.3
20260508134058 71 73 2.0 4.0 0.00 0.00 0.00 29 1013.2
20260508133558 71 58 2.0 4.0 0.00 0.00 0.00 29 1013.2
20260508133103 70 65 0.0 2.0 0.00 0.00 0.00 29 1013.1
20260508132557 70 0 0.0 2.0 0.00 0.00 0.00 29 1013.0
20260508132057 69 52 0.0 2.0 0.00 0.00 0.00 29 1013.0
20260508131608 68 53 1.0 3.0 0.00 0.00 0.00 30 1013.0
20260508131059 67 0 0.0 3.0 0.00 0.00 0.00 31 1013.0
20260508130559 65 1 0.0 3.0 0.00 0.00 0.00 32 1013.0
20260508125559 64 0 0.0 1.0 0.00 0.00 0.00 31 1012.7
20260508125058 63 30 0.0 1.0 0.00 0.00 0.00 31 1012.7
20260508124600 63 0 0.0 0.0 0.00 0.00 0.00 31 1012.7
20260508124058 63 0 0.0 0.0 0.00 0.00 0.00 29 1012.4
20260508123558 64 0 0.0 1.0 0.00 0.00 0.00 29 1012.4
20260508123117 64 0 0.0 2.0 0.00 0.00 0.00 28 1012.3
20260508122557 64 0 0.0 2.0 0.00 0.00 0.00 28 1012.2
20260508122058 64 47 0.0 1.0 0.00 0.00 0.00 28 1012.2
20260508121608 64 0 0.0 1.0 0.00 0.00 0.00 27 1012.1
20260508121057 63 0 0.0 0.0 0.00 0.00 0.00 28 1012.2
20260508120558 63 0 0.0 0.0 0.00 0.00 0.00 27 1012.2
20260508120110 63 0 0.0 0.0 0.00 0.00 0.00 27 1012.1
20260508115559 63 0 0.0 0.0 0.00 0.00 0.00 27 1012.1
20260508115058 64 0 0.0 0.0 0.00 0.00 0.00 27 1011.9
20260508114602 64 0 0.0 1.0 0.00 0.00 0.00 26 1011.9
20260508114102 65 0 0.0 1.0 0.00 0.00 0.00 25 1011.9
20260508113559 65 0 0.0 2.0 0.00 0.00 0.00 25 1011.8
20260508113108 65 338 0.0 2.0 0.00 0.00 0.00 25 1011.8
20260508112558 65 337 1.0 3.0 0.00 0.00 0.00 25 1011.8
20260508112058 65 338 2.0 3.0 0.00 0.00 0.00 26 1011.8
20260508111602 65 0 0.0 1.0 0.00 0.00 0.00 27 1011.9
20260508111058 65 0 0.0 1.0 0.00 0.00 0.00 26 1011.7
20260508110557 65 0 0.0 2.0 0.00 0.00 0.00 26 1011.8
20260508110109 65 256 0.0 2.0 0.00 0.00 0.00 28 1011.7
20260508105558 65 272 0.0 1.0 0.00 0.00 0.00 26 1011.7
20260508105058 65 0 0.0 1.0 0.00 0.00 0.00 26 1011.6
20260508104559 65 0 0.0 1.0 0.00 0.00 0.00 26 1011.6
20260508104058 65 2 0.0 0.0 0.00 0.00 0.00 27 1011.6
20260508103559 65 0 0.0 0.0 0.00 0.00 0.00 27 1011.7
20260508103113 66 0 0.0 0.0 0.00 0.00 0.00 26 1011.7
20260508102558 66 0 0.0 1.0 0.00 0.00 0.00 26 1011.7
20260508102103 66 0 0.0 1.0 0.00 0.00 0.00 26 1011.7
20260508101600 66 288 0.0 1.0 0.00 0.00 0.00 26 1011.7
20260508101058 66 278 0.0 1.0 0.00 0.00 0.00 27 1011.7
20260508100558 66 0 0.0 2.0 0.00 0.00 0.00 26 1011.7
20260508100059 67 0 0.0 2.0 0.00 0.00 0.00 26 1011.6
20260508095559 67 89 0.0 0.0 0.00 0.00 0.00 26 1011.5
20260508095058 66 0 0.0 0.0 0.00 0.00 0.00 26 1011.6
20260508094600 67 0 0.0 0.0 0.00 0.00 0.00 26 1011.6
20260508094100 67 0 0.0 1.0 0.00 0.00 0.00 25 1011.6
20260508093601 68 0 0.0 1.0 0.00 0.00 0.00 25 1011.6
20260508093105 69 95 0.0 1.0 0.00 0.00 0.00 25 1011.4
20260508092600 69 0 0.0 0.0 0.00 0.00 0.00 25 1011.4
20260508092058 70 0 0.0 0.0 0.00 0.00 0.00 24 1011.4
20260508091600 70 0 0.0 2.0 0.00 0.00 0.00 23 1011.5
20260508091058 71 0 0.0 2.0 0.00 0.00 0.00 23 1011.5
20260508090559 71 296 1.0 2.0 0.00 0.00 0.00 23 1011.4
20260508090113 71 293 0.0 3.0 0.00 0.00 0.00 23 1011.5
20260508085558 71 0 1.0 3.0 0.00 0.00 0.00 22 1011.4
20260508085058 71 319 1.0 4.0 0.00 0.00 0.00 23 1011.6
20260508084600 71 351 0.0 4.0 0.00 0.00 0.00 22 1011.6
20260508084102 72 330 2.0 4.0 0.00 0.00 0.00 21 1011.5
20260508083559 72 331 2.0 4.0 0.00 0.00 0.00 21 1011.4
20260508083105 73 330 2.0 4.0 0.00 0.00 0.00 21 1011.5
20260508082558 73 326 3.0 4.0 0.00 0.00 0.00 21 1011.4
20260508082100 73 335 3.0 4.0 0.00 0.00 0.00 21 1011.5
20260508081610 73 331 3.0 4.0 0.00 0.00 0.00 21 1011.4
20260508081057 73 321 1.0 3.0 0.00 0.00 0.00 21 1011.4
20260508080557 74 329 1.0 3.0 0.00 0.00 0.00 20 1011.4
20260508080056 74 336 1.0 3.0 0.00 0.00 0.00 21 1011.5
20260508075557 75 333 1.0 3.0 0.00 0.00 0.00 22 1011.6
20260508075057 76 316 0.0 3.0 0.00 0.00 0.00 23 1011.5
20260508074557 76 295 1.0 3.0 0.00 0.00 0.00 23 1011.5
20260508074058 77 302 1.0 3.0 0.00 0.00 0.00 23 1011.6
20260508073559 77 304 1.0 3.0 0.00 0.00 0.00 23 1011.5
20260508073059 76 295 1.0 4.0 0.00 0.00 0.00 23 1011.5
20260508072558 76 302 2.0 4.0 0.00 0.00 0.00 23 1011.5
20260508072058 76 299 1.0 2.0 0.00 0.00 0.00 23 1011.5
20260508071558 75 0 0.0 2.0 0.00 0.00 0.00 22 1011.4
20260508071057 75 321 1.0 2.0 0.00 0.00 0.00 21 1011.5
20260508070602 75 317 0.0 2.0 0.00 0.00 0.00 21 1011.4
20260508070058 76 317 1.0 2.0 0.00 0.00 0.00 21 1011.5
20260508065558 76 317 0.0 2.0 0.00 0.00 0.00 21 1011.5
20260508065059 76 319 1.0 2.0 0.00 0.00 0.00 21 1011.6
20260508064558 76 320 1.0 3.0 0.00 0.00 0.00 20 1011.6
20260508064058 76 322 1.0 4.0 0.00 0.00 0.00 20 1011.6
20260508063559 76 328 2.0 4.0 0.00 0.00 0.00 19 1011.6
20260508063107 76 329 2.0 4.0 0.00 0.00 0.00 19 1011.5
20260508062602 77 326 2.0 5.0 0.00 0.00 0.00 19 1011.5
20260508062058 77 330 3.0 5.0 0.00 0.00 0.00 19 1011.5
20260508061557 77 329 3.0 4.0 0.00 0.00 0.00 19 1011.3
20260508061059 77 326 2.0 3.0 0.00 0.00 0.00 19 1011.4
20260508060558 77 316 3.0 3.0 0.00 0.00 0.00 19 1011.5
20260508060056 77 328 1.0 4.0 0.00 0.00 0.00 19 1011.4
20260508055557 78 330 2.0 4.0 0.00 0.00 0.00 19 1011.3
20260508055059 77 333 2.0 4.0 0.00 0.00 0.00 19 1011.4
20260508054557 77 109 1.0 4.0 0.00 0.00 0.00 19 1011.5
20260508054058 78 321 1.0 3.0 0.00 0.00 0.00 19 1011.3
20260508053558 78 320 2.0 3.0 0.00 0.00 0.00 19 1011.3
20260508053106 79 335 1.0 3.0 0.00 0.00 0.00 19 1011.3
20260508052558 80 339 1.0 4.0 0.00 0.00 0.00 18 1011.3
20260508052101 80 330 2.0 4.0 0.00 0.00 0.00 18 1011.3
20260508051558 81 328 1.0 2.0 0.00 0.00 0.00 18 1011.2
20260508051058 82 0 0.0 4.0 0.00 0.00 0.00 17 1011.1
20260508050559 82 266 1.0 4.0 0.00 0.00 0.00 18 1011.2
20260508045558 83 265 2.0 5.0 0.00 0.00 0.00 17 1011.1
20260508045058 83 249 2.0 6.0 0.00 0.00 0.00 16 1011.1
20260508044558 84 255 3.0 6.0 0.00 0.00 0.00 17 1011.1
20260508044101 84 247 3.0 7.0 0.00 0.00 0.00 16 1011.0
20260508043557 84 274 4.0 8.0 0.00 0.00 0.00 16 1011.0
20260508043104 85 237 4.0 8.0 0.00 0.00 0.00 16 1011.0
20260508042559 85 266 4.0 8.0 0.00 0.00 0.00 16 1010.9
20260508042059 85 250 4.0 7.0 0.00 0.00 0.00 16 1010.9
20260508041601 85 247 4.0 7.0 0.00 0.00 0.00 16 1010.9
20260508041059 86 285 4.0 7.0 0.00 0.00 0.00 16 1010.8
20260508040559 86 262 4.0 8.0 0.00 0.00 0.00 16 1010.8
20260508040056 86 276 5.0 8.0 0.00 0.00 0.00 16 1010.8
20260508035600 86 267 4.0 7.0 0.00 0.00 0.00 16 1010.8
20260508035058 86 234 4.0 7.0 0.00 0.00 0.00 16 1010.6